Weather History for OJAQ - August, 2014

Change the Weather History Date:

Sunday, August 10, 2014

  Actual Average (LLET) Record (LLET)
Temperature  
Mean Temperature 90 °F -  
Max Temperature 101 °F 103 °F 110 °F (2012)
Min Temperature 78 °F 81 °F 78 °F (2007)
Cooling Degree Days 24    
Growing Degree Days 40 (Base 50)    
Moisture  
Dew Point 60 °F    
Average Humidity 37    
Maximum Humidity 61    
Minimum Humidity 12    
Precipitation  
Precipitation 0.00 in - - ()
Sea Level Pressure  
Sea Level Pressure 29.73 in    
Wind  
Wind Speed 12 mph ()    
Max Wind Speed 29 mph    
Max Gust Speed -    
Visibility 6.0 miles    
Events      
Averages and records for this station are not official NWS values.
T = Trace of Precipitation, MM = Missing Value Source: Averaged Metar Reports

Daily Weather History Graph

Daily Weather History Graph

Search for Another Location

Airport or City:

Trip Planner

Search our weather history database for the weather conditions in past years. The results will help you decide how hot, cold, wet, or windy it might be!

Date:

Astronomy

Aug. 10, 2014 Rise Set
Actual Time 6:04 AM EEST 7:25 PM EEST
Civil Twilight 5:39 AM EEST 7:50 PM EEST
Nautical Twilight 5:09 AM EEST 8:20 PM EEST
Astronomical Twilight 4:37 AM EEST 8:52 PM EEST
Moon 7:01 PM EEST (8/10) 5:29 AM EEST (8/10)
Length of Visible Light 14h 11m
Length of Day
13h 20m
Full, 100% of the Moon is Illuminated
Aug 10
Full
Aug 10
Full
Aug 17
Last Quarter
Aug 25
New
Sep 2
First Quarter

Hourly Weather History & Observations

Time (EEST) Temp. Heat Index Dew Point Humidity Pressure Visibility Wind Dir Wind Speed Gust Speed Precip Events Conditions
12:00 AM 86 °F - 64 °F 38% 29.75 in 6 mi NNW 29.1 mph - -  
12:00 AM 86.0 °F 87.3 °F 64.4 °F 48% 29.74 in - NNW 15.0 mph - N/A   Clear
1:00 AM 84.2 °F 85.6 °F 64.4 °F 51% 29.74 in - North 10.4 mph - N/A   Clear
3:00 AM 82 °F - 63 °F 43% 29.75 in 6 mi North 8.1 mph - -  
3:00 AM 82.4 °F 83.4 °F 62.6 °F 51% 29.74 in - North 8.1 mph - N/A   Clear
5:00 AM 80.6 °F 81.8 °F 62.6 °F 54% 29.74 in - North 8.1 mph - N/A   Clear
6:00 AM 79 °F - 64 °F 51% 29.75 in 6 mi North 15.7 mph - -  
6:00 AM 78.8 °F - 64.4 °F 61% 29.74 in - North 8.1 mph - N/A   Clear
8:00 AM 78.8 °F - 64.4 °F 61% 29.74 in - North 8.1 mph - N/A   Clear
9:00 AM 82 °F - 63 °F 43% 29.78 in 6 mi North 8.1 mph - -  
9:00 AM 82.4 °F 83.9 °F 64.4 °F 54% 29.74 in - North 8.1 mph - N/A   Clear
10:00 AM 84.2 °F 85.0 °F 62.6 °F 48% 29.77 in - North 11.5 mph - N/A   Clear
11:00 AM 86.0 °F 86.6 °F 62.6 °F 45% 29.77 in - North 11.5 mph - N/A   Clear
12:00 PM 89 °F - 60 °F 28% 29.75 in 6 mi North 26.8 mph - -  
12:00 PM 89.6 °F 89.5 °F 60.8 °F 38% 29.74 in - North 13.8 mph - N/A   Clear
1:00 PM 91.4 °F 91.4 °F 60.8 °F 36% 29.74 in - North 13.8 mph - N/A   Clear
2:00 PM 93.2 °F 93.3 °F 60.8 °F 34% 29.74 in - North 13.8 mph - N/A   Clear
3:00 PM 97 °F - 53 °F 14% 29.73 in 6 mi North 10.4 mph - -  
3:00 PM 96.8 °F 94.4 °F 53.6 °F 23% 29.74 in - North 10.4 mph - N/A   Clear
5:00 PM 98.6 °F - 51.8 °F 21% 29.71 in - North 11.5 mph - N/A   Clear
6:00 PM 101 °F - 52 °F 12% 29.66 in 6 mi North 22.4 mph - -  
6:00 PM 100.4 °F - 51.8 °F 20% 29.68 in - North 11.5 mph - N/A   Clear
7:00 PM 98.6 °F 97.2 °F 55.4 °F 24% 29.68 in - North 9.2 mph - N/A   Clear
8:00 PM 96.8 °F 95.1 °F 55.4 °F 25% 29.68 in - North 9.2 mph - N/A   Clear
9:00 PM 95 °F - 55 °F 17% 29.68 in 6 mi NNW 9.2 mph - -  
9:00 PM 95.0 °F 93.0 °F 55.4 °F 26% 29.71 in - NNW 9.2 mph - N/A   Clear
10:00 PM 91.4 °F 89.9 °F 57.2 °F 31% 29.71 in - North 6.9 mph - N/A   Clear
11:00 PM 87.8 °F 87.1 °F 59.0 °F 38% 29.71 in - NNW 6.9 mph - N/A   Clear